Home   Weather   Medford   Past weeks

Flag for USA Past Weather in Medford, Oregon, USA — Yesterday and Last 2 Weeks

50 °F


Feels Like: 50 °F
Forecast: 58 / 71 °F
Wind: No wind

Location: Rogue Valley International Airport

Current Time: Oct 26, 2016 at 4:24:00 AM

Latest Report: Oct 26, 2016 at 3:53 AM

Visibility: 1 mi

Pressure: 29.84 "Hg

Humidity: 100%

Dew Point: 50 °F

Location of MedfordLocation

Past Weather in Medford — Graph


Medford Temperature Yesterday

Maximum temperature yesterday: 56 °F (at 3:53 PM)
Minimum temperature yesterday: 45 °F (at 4:57 AM)
Average temperature yesterday: 49 °F

High & Low Weather Summary for the Past Weeks

High77 °F (Oct 11, 3:53 PM)100% (Oct 13, 5:53 PM)30.38 "Hg (Oct 13, 5:53 PM)
Low41 °F (Oct 19, 6:53 AM)23% (Oct 11, 5:53 PM)29.45 "Hg (Oct 15, 1:53 PM)
Average53 °F81%29.92 "Hg
* Reported Oct 11 3:53 AM — Oct 26 3:00 AM, Medford, Weather by CustomWeather, © 2016

Note: Actual official high and low records may vary slightly from our data, if they occured in-between our weather recording intervals... More about our weather records


Medford Weather History for the Previous 24 Hours

Scroll right to see more
Time TempWeatherWind HumidityBarometerVisibility
3:00 AM
Wed, Oct 26
50 °FFog.No wind100%29.86 "Hg1 mi
2:03 AM49 °FFog.No wind100%29.86 "Hg1 mi
1:56 AM49 °FFog.No wind100%29.86 "Hg1 mi
12:53 AM50 °FFog.No wind100%29.88 "Hg4 mi
11:53 PM
Tue, Oct 25
51 °FFog.No wind100%29.88 "Hg5 mi
10:53 PM51 °FFog.No wind100%29.90 "Hg4 mi
9:53 PM52 °FRain. Fog.No wind97%29.90 "Hg2 mi
8:53 PM52 °FMostly cloudy.3 mph97%29.93 "Hg8 mi
7:53 PM52 °FLight rain. Mostly cloudy.5 mph97%29.95 "Hg8 mi
6:53 PM53 °FLight rain. Fog.No wind93%29.96 "Hg5 mi
5:53 PM54 °FLight rain. Mostly cloudy.No wind86%29.94 "Hg9 mi
4:53 PM55 °FLight rain. Overcast.No wind74%29.96 "Hg10 mi
3:53 PM56 °FLight rain. Overcast.No wind70%29.98 "Hg10 mi
2:53 PM55 °FPartly sunny.No wind72%29.98 "Hg9 mi
1:53 PM53 °FPassing clouds.No wind77%29.99 "Hg10 mi
12:53 PM51 °FScattered clouds.No wind83%30.01 "Hg10 mi
11:53 AM49 °FFog.No wind90%30.02 "Hg6 mi
10:53 AM47 °FFog.No wind93%30.05 "Hg3 mi
9:53 AM46 °FFog.No wind93%30.04 "Hg3 mi
8:53 AM45 °FLow clouds.3 mph100%30.00 "Hg3 mi
7:53 AM45 °FFog.No wind100%29.99 "Hg3 mi
6:53 AM45 °FFog.3 mph100%29.99 "Hg3 mi
5:53 AM45 °FFog.3 mph100%29.97 "Hg3 mi
4:57 AM45 °FFog.5 mph100%29.96 "Hg1 mi
Weather by CustomWeather, © 2016

See weather overviewHow to use our weather pages